Preview of NWS' New Version of Forecast
This preview is not operational and should not be used for support decisions.

Regional Weather Roundup (RWR)

Issued by Gray - Portland, ME (GYX)

                            
000
ASUS41 KGYX 220210
RWRGYX
WEATHER ROUNDUP FOR MAINE AND NEW HAMPSHIRE
NATIONAL WEATHER SERVICE GRAY ME
1000 PM EDT SUN APR 21 2019

MEZ002-005-006-010-012-015-018-020-021-024-026-027-029-220300-
MAINE
  
CITY           SKY/WX    TMP DP  RH WIND       PRES   REMARKS
PORTLAND       FOG       49  48  97 NE6       30.12R VSB 1/4          
SANFORD        LGT RAIN  52  52 100 CALM      30.11R FOG              
BAR HARBOR     FOG       48  47  96 SW8       30.14R VSB 3/4          
WISCASSET      FOG       50  49  96 CALM      30.14R VSB 1/2          
ROCKLAND       CLOUDY    45  45 100 S5        30.14R FOG              
FRYEBURG       MOCLDY    54  53  97 CALM      30.11R                  
LEWISTONAUBURN FOG       53  53 100 S3        30.12R VSB 1/2          
AUGUSTA        FOG       52  52 100 S3        30.12R VSB 1/4          
WATERVILLE     FOG       54  54 100 CALM      30.10R VSB 1/4          
BANGOR         FOG       52  52 100 S6        30.12R VSB 1/4          
GREENVILLE       N/A     52  51  97 CALM      30.08R                  
MILLINOCKET    FOG       51  50  96 CALM      30.10R VSB 1/4          
HOULTON        FOG       54  53  97 CALM      30.07S VSB 3/4          
PRESQUE ISLE   MOCLDY    53  52  96 CALM      30.08R                  
FRENCHVILLE    FOG       51  48  89 N5        30.06R VSB 3/4          
CARIBOU        FAIR      53  51  93 S5        30.06R FOG              
$$

NHZ002-005-008-009-011-012-014-220300-
NEW HAMPSHIRE
  
CITY           SKY/WX    TMP DP  RH WIND       PRES   REMARKS
PORTSMOUTH     CLOUDY    53  51  91 S3        30.09R                  
ROCHESTER      MOCLDY    57  55  93 CALM      30.10R                  
NASHUA         FAIR      58  56  93 CALM      30.11R                  
MANCHESTER     MOCLDY    61  56  83 CALM      30.09R                  
CONCORD        MOCLDY    58  57  97 CALM      30.10R FOG              
LACONIA        CLOUDY    61  56  83 S6        30.10R                  
PLYMOUTH       FAIR      49  47  95 CALM      30.10R                  
BERLIN         CLOUDY    48  46  93 CALM      30.11R                  
WHITEFIELD     CLOUDY    51  46  83 CALM      30.11R                  
JAFFREY        FAIR      52  50  93 S5        30.11S                  
KEENE          FAIR      52  51  97 CALM      30.11R                  
LEBANON        FAIR      54  49  83 CALM      30.09R                  
MT WASHINGTON  FOG       39  39 100 W13         N/A  VSB 1/16         
$$

VTZ005-007-008-220300-
VERMONT
  
CITY           SKY/WX    TMP DP  RH WIND       PRES   REMARKS
ST JOHNSBURY     N/A     59  50  72 MISG      30.10R                  
MONTPELIER     LGT RAIN  53  51  93 CALM      30.17R                  
BURLINGTON     FAIR      58  47  66 NE3       30.12R                  
$$

MAZ007-012-024-CTZ003-RIZ002-NYZ038-NYZ072-220300-
SOUTHERN NEW ENGLAND AND NY
  
CITY           SKY/WX    TMP DP  RH WIND       PRES   REMARKS
BOSTON         CLOUDY    60  52  74 S6        30.12R                  
WORCESTER      FAIR      54  51  90 CALM      30.11S                  
NANTUCKET      MOCLDY    50  48  93 SE7       30.15F                  
PROVIDENCE     MOCLDY    51  50  96 CALM      30.13S                  
HARTFORD       MOCLDY    54  51  90 CALM      30.10R                  
ALBANY         MOCLDY    58  48  69 W8        30.11R                  
NEW YORK CITY  MOCLDY    55  45  68 E8        30.09R                  
$$

ANZ081-ANZ082-ANZ150-NHZ014-MEZ023>029-220300-
COASTAL MARINE OBSERVATIONS
  
STATION/POSITION TIME  TEMP    WIND        PRES    WAVE
                       AIR SEA DIR/SP/G            HT/PER
                 (UTC) (F)     (DEG/KT/KT) (MB)    (FT/S)
ISLE OF SHOALS   0100   58     210/ 18/ 19 1018.5R
$$

.............KEY..............
   WCI - WIND CHILL
   TC  - TEMPERATURE IN CELSIUS
   VSB - VISIBILITY IN MILES
   HX  - HEAT INDEX
   FAIR- INDICATES FEW OR NO CLOUDS BELOW 12,000 FT, WITH NO 
         SIGNIFICANT WEATHER AND/OR OBSTRUCTIONS TO VISIBILITY.